Regional Weather Roundup
Issued by NWS Charleston, SC

Current Version | Previous Version | Graphics & Text | Print | Product List | Glossary On
Versions: 1 2 3 4 5 6 7 8 9 10 11 12 13 14 15 16 17 18 19 20 21 22 23 24 25 26 27 28 29 30 31 32 33 34 35 36 37 38 39 40 41 42 43 44 45 46 47 48 49 50
000
ASUS42 KCHS 311610
RWRCHS
REGIONAL WEATHER ROUNDUP
NATIONAL WEATHER SERVICE CHARLESTON SC
1200 PM EDT THU JUL 31 2014

NOTE: "FAIR" INDICATES FEW OR NO CLOUDS BELOW 12,000 FEET WITH NO
SIGNIFICANT WEATHER AND/OR OBSTRUCTIONS TO VISIBILITY.

NOT ALL STATIONS ARE QUALITY CONTROLLED BY THE NATIONAL
WEATHER SERVICE. USE DATA WITH CAUTION...ESPECIALLY
DEWPOINT OBSERVATIONS.

SCZ027-030-031-034>040-042>050-311700-
...SOUTH CAROLINA...

CITY           SKY/WX    TMP DP  RH WIND       PRES   REMARKS
N CHARLESTON   CLOUDY    81  73  76 NE10      30.05R
WATERFRONT PRK   N/A     84 N/A N/A E21         N/A
FORT JOHNSON   NOT AVBL
MOUNT PLEASANT FAIR      84  75  74 E8        30.05S HX  92
JOHNS ISLAND   LGT RAIN  81  73  78 CALM      30.04R
PINOPOLIS        N/A     84  73  70 E5G12     29.97F HX  91
MONCKS CORNER  LGT RAIN  84  73  70 E3        30.05S HX  91
SUMMERVILLE    RAIN      73  73 100 W7        30.07F
BEAUFORT MCAS  PTSUNNY   81  76  84 E8        30.03S FOG
BEAUFORT ARPT  PTSUNNY   82  77  83 CALM      30.02R HX  91
HILTON HEAD IS PTSUNNY   86  70  58 SE6       30.02S HX  90
GEORGETOWN     NOT AVBL
WALTERBORO     CLOUDY    79  79 100 E14G21    30.06S
ORANGEBURG     CLOUDY    79  71  76 E8        30.07S
BARNWELL       FAIR      81  73  78 E7        30.06S
AIKEN          PTSUNNY   81  73  78 E10       30.11R
MANNING        CLOUDY    79  79 100 E5        30.08S
KINGSTREE      NOT AVBL
COLUMBIA       CLOUDY    83  69  62 E12       30.07S
SUMTER         PTSUNNY   82  72  69 E10       30.07S
FLORENCE       CLOUDY    83  70  64 SE10      30.10R
MYRTLE BEACH   PTSUNNY   84  72  65 E18       30.09R
N MYRTLE BEACH PTSUNNY   83  70  64 E14       30.09S

$$

GAZ063-065-086>088-099>101-113>116-118-119-134-136>141-150-311700-
...GEORGIA...

CITY           SKY/WX    TMP DP  RH WIND       PRES   REMARKS
SAVANNAH ARPT  CLOUDY    87  71  58 SE12      30.00F HX  93
HUNTER AAF     PTSUNNY   87  74  65 SE10      29.98F HX  94
FORT STEWART   PTSUNNY   86  73  64 VRB3      29.99F HX  93
STATESBORO     NOT AVBL
SYLVANIA       CLOUDY    76  74  93 NE5       30.05S
CLAXTON        FAIR      82  77  83 CALM      30.02S HX  91
THOMSON        CLOUDY    81  77  89 NE5       30.12R
AUGUSTA-BUSH   CLOUDY    82  71  69 E9        30.05R
AUGUSTA-DANIEL CLOUDY    82  70  66 E8        30.07R
SWAINSBORO     CLOUDY    82  77  83 E3        30.04S HX  91
VIDALIA          N/A     86  73  66 E6        30.03S HX  93
ALMA           MOSUNNY   89  66  46 CALM      30.01S HX  91
WAYCROSS       MOSUNNY   92  66  41 SW3       30.00S HX  95
JESUP          PTSUNNY   88  73  62 N3        30.00S HX  96
BRUNSWICK      MOSUNNY   90  68  48 SW6       30.01S HX  93
SAINT SIMONS   SUNNY     88  71  57 CALM      30.00F HX  94

$$

SCZ027-028-034-036>038-045-046-048>050-GAZ119-141-311700-
...LAKE AND SUPPLEMENTAL COASTAL OBSERVATIONS...

STATION/POSITION TIME  TEMP    WIND        PRES    WAVE   SWELL
                       AIR SEA DIR/SP/G            HT/PER HT/PER/DIR
                 (UTC) (F)     (DEG/KT/KT) (MB)    (FT/S) (FT/S/D)
UPR LAKE MARION  NOT AVBL
WINYAH BAY       1500   83      90/ 14     1018.0S
LAKE MURRAY      1500   77      60/  3/ 10 1017.9S
ACE BASIN NERRS  1500   79      40/  4     1017.0S
FORT PULASKI     1600   85     160/  8/ 13 1016.3F
SAPELO ISLAND    1500   87     170/  6     1017.0S

$$

ANZ835-935-AMZ111-154-330-350-352-354-374-450-454-472-311700-
...C-MAN AND BUOY OBSERVATIONS...

STATION/POSITION TIME  TEMP    WIND        PRES    WAVE   SWELL
                       AIR SEA DIR/SP/G            HT/PER HT/PER/DIR
                 (UTC) (F)     (DEG/KT/KT) (MB)    (FT/S) (FT/S/D)
FOLLY BEACH CMAN 1500   82      90/ 18/ 21 1017.7R
BUOY 41004       1600   83 83   80/ 17/ 19 1016.5F   3/ 4   2/ 8
BUOY 41008       1600   84 85  190/  6/  8 1016.0F   3/ 5   2/ 60/ 5
5E ST. MARYS GA  1600      86                N/A     2/ 5
FRYING PAN BUOY  NOT AVBL
BUOY 41025       1600          VRB  8/ 12  1020.2R   4/ 7   3/130/ 7
CAPE LOOKOUT NC  1500   80      80/ 12/ 13 1020.0R
BUOY 41002       1518   77 81  190/ 12/ 14 1018.9F   4/ 6   3/ 30/ 6
BUOY 41010       1600   82 85  140/ 14/ 19 1016.9R   2/ 5   2/110/ 8
BUOY 41012       NOT AVBL
ST AUGUSTINE FL  1600   83      90/  5/  6 1017.1R
CAPERS NEARSHORE 1500   82      90/ 14/ 17   N/A
FRIPP NEARSHORE  NOT AVBL


$$



USA.gov is the U.S. government's official web portal to all federal, state and local government web resources and services.